星链-2695 (STARLINK-2695 )

导读 | 豆包AI

STARLINK-2695是美国太空探索技术公司(SpaceX)“星链”(Starlink)星座的成员,于2021年5月26日发射入轨,属于星链低轨卫星互联网项目。星链旨在全球提供高速宽带互联网服务,该卫星承担着为全球用户,尤其是偏远地区提供网络覆盖与通信服务的任务,是星链星座大规模组网建设中的一环。

Basic Information
目录编号:
48644
目录名称:
STARLINK-2695
国际标识:
2021-044G
轨道中心:
EARTH
卫星名称:
星链-2695
卫星全名:
星链-2695 (STARLINK-2695 )
卫星状态:
在轨 (已飞行1753 天)
发射日期:
2021-05-26 UTC
国别 :
美国 (US)
星等 :
--
Orbit Information
数据来源 国际轨道数据 AOE轨道数据
星历时间 2026-03-14T15:24:29+0800
10小时前
查看轨道信息
2026-03-12T02:00:00+0800
3天前
查看轨道信息
半长轴 6853.397km 6853.335km
偏心率 0.0001281 0.0001838
轨道倾角 53.161° 53.160°
近地点辐角 98.230° 76.473°
升交点赤经 92.598° 104.492°
平近点角 261.884° 220.867°
近地点 474.382km 473.938km
远地点 476.138km 476.458km
周期 94.106分钟 94.105分钟
每日圈数 15.30185 15.302058
Detailed Information
固有亮度:
5
最大亮度:
2.5
卫星平台:
Starlink V1.0
覆盖范围:
全球
运营商:
太空探索技术公司
运营商所在国:
美国
制造商(研发单位):
太空探索技术公司
制造商所在国:
美国
使用方式:
暂无
Satellite Introduction
星链(Starlink)计划是由太空探索技术公司(SpaceX)提出的一个巨型低轨卫星互联网星座项目,计划在2019年至2024年间在太空搭建由约1.2万颗卫星组成的“星链”网络,其中1584颗将部署在地球上空550千米处的近地轨道,并从2020年开始工作。该卫星仍在工作。
2D Orbit Map
3D Orbit Map
Orbit Altitude Analysis Chart
Orbit Inclination Analysis Chart
Orbit Comprehensive Analysis Chart
View Comprehensive Chart